Location: Boiro
(42.6475°N, 8.8834°W)
Time: 06:31:52
(UTC+01:00)

Vanguard 1 - Pass Details

Date: 30 November 2021
Orbit: 652 x 3830 km, 34.2° (Epoch: 21 January)

Event Time Altitude Azimuth Distance (km) Brightness Sun altitude
Rises 09:43:50 0° 280° (W) 6,745 13.8 8.1°
Reaches altitude 10° 09:51:19 10° 263° (W) 4,998 13.3 9.1°
Maximum altitude 09:57:54 15° 233° (SW) 3,830 13.0 10.0°
Drops below altitude 10° 10:02:58 10° 201° (SSW) 3,645 13.3 10.7°
Sets 10:07:01 0° 178° (S) 4,123 14.0 11.2°
